| time (UTC) | temp F | wind direction | speed MPH | gust MPH | rain 1hr in | rain 24hr in | rain mn in | humidity % | barometer mb |
| 20260510094457 | 69 | 136 | 3.0 | 5.0 | 0.00 | 0.00 | 0.00 | 44 | 1011.1 |
| 20260510093953 | 69 | 184 | 1.0 | 2.0 | 0.00 | 0.00 | 0.00 | 43 | 1011.1 |
| 20260510093449 | 69 | 237 | 1.0 | 1.0 | 0.00 | 0.00 | 0.00 | 43 | 1011.2 |
| 20260510092945 | 70 | 155 | 1.0 | 1.0 | 0.00 | 0.00 | 0.00 | 42 | 1011.0 |
| 20260510092443 | 70 | 226 | 0.0 | 1.0 | 0.00 | 0.00 | 0.00 | 41 | 1010.8 |
| 20260510091942 | 70 | 240 | 1.0 | 2.0 | 0.00 | 0.00 | 0.00 | 41 | 1010.8 |
| 20260510091440 | 70 | 175 | 3.0 | 3.0 | 0.00 | 0.00 | 0.00 | 40 | 1011.0 |
| 20260510090936 | 71 | 171 | 1.0 | 1.0 | 0.00 | 0.00 | 0.00 | 39 | 1011.3 |
| 20260510090433 | 71 | 107 | 2.0 | 2.0 | 0.00 | 0.00 | 0.00 | 39 | 1011.1 |
| 20260510085928 | 70 | 212 | 0.0 | 0.0 | 0.00 | 0.00 | 0.00 | 39 | 1011.4 |
| 20260510085424 | 70 | 212 | 1.0 | 1.0 | 0.00 | 0.00 | 0.00 | 38 | 1011.2 |
| 20260510084919 | 70 | 222 | 1.0 | 1.0 | 0.00 | 0.00 | 0.00 | 38 | 1011.0 |
| 20260510084417 | 71 | 209 | 0.0 | 0.0 | 0.00 | 0.00 | 0.00 | 37 | 1011.2 |
| 20260510083913 | 71 | 214 | 0.0 | 1.0 | 0.00 | 0.00 | 0.00 | 37 | 1010.8 |
| 20260510083410 | 71 | 257 | 0.0 | 1.0 | 0.00 | 0.00 | 0.00 | 36 | 1011.1 |
| 20260510082905 | 71 | 212 | 0.0 | 1.0 | 0.00 | 0.00 | 0.00 | 36 | 1010.7 |
| 20260510082404 | 72 | 206 | 0.0 | 1.0 | 0.00 | 0.00 | 0.00 | 35 | 1010.8 |
| 20260510081902 | 72 | 224 | 0.0 | 1.0 | 0.00 | 0.00 | 0.00 | 35 | 1010.6 |
| 20260510081358 | 72 | 231 | 2.0 | 2.0 | 0.00 | 0.00 | 0.00 | 35 | 1010.7 |
| 20260510080855 | 72 | 248 | 3.0 | 6.0 | 0.00 | 0.00 | 0.00 | 35 | 1011.1 |
| 20260510080348 | 71 | 243 | 1.0 | 1.0 | 0.00 | 0.00 | 0.00 | 35 | 1011.0 |
| 20260510075846 | 71 | 229 | 0.0 | 0.0 | 0.00 | 0.00 | 0.00 | 35 | 1011.1 |
| 20260510075344 | 72 | 231 | 0.0 | 1.0 | 0.00 | 0.00 | 0.00 | 35 | 1011.2 |
| 20260510074840 | 72 | 313 | 0.0 | 1.0 | 0.00 | 0.00 | 0.00 | 35 | 1011.4 |
| 20260510074337 | 72 | 254 | 2.0 | 3.0 | 0.00 | 0.00 | 0.00 | 36 | 1011.1 |
| 20260510073833 | 72 | 319 | 2.0 | 3.0 | 0.00 | 0.00 | 0.00 | 36 | 1010.8 |
| 20260510073329 | 72 | 242 | 2.0 | 2.0 | 0.00 | 0.00 | 0.00 | 36 | 1010.5 |
| 20260510072825 | 72 | 220 | 2.0 | 2.0 | 0.00 | 0.00 | 0.00 | 35 | 1010.3 |
| 20260510072322 | 72 | 246 | 4.0 | 6.0 | 0.00 | 0.00 | 0.00 | 35 | 1010.2 |
| 20260510071813 | 73 | 210 | 1.0 | 1.0 | 0.00 | 0.00 | 0.00 | 35 | 1010.0 |
| 20260510071309 | 73 | 241 | 2.0 | 2.0 | 0.00 | 0.00 | 0.00 | 35 | 1010.0 |
| 20260510070808 | 73 | 229 | 1.0 | 2.0 | 0.00 | 0.00 | 0.00 | 35 | 1010.0 |
| 20260510070304 | 73 | 348 | 2.0 | 2.0 | 0.00 | 0.00 | 0.00 | 34 | 1010.0 |
| 20260510065759 | 73 | 230 | 3.0 | 3.0 | 0.00 | 0.00 | 0.00 | 34 | 1010.1 |
| 20260510065256 | 73 | 240 | 1.0 | 2.0 | 0.00 | 0.00 | 0.00 | 34 | 1009.8 |
| 20260510064753 | 73 | 275 | 2.0 | 2.0 | 0.00 | 0.00 | 0.00 | 33 | 1010.4 |
| 20260510064250 | 74 | 250 | 1.0 | 2.0 | 0.00 | 0.00 | 0.00 | 33 | 1010.1 |
| 20260510063745 | 74 | 194 | 1.0 | 2.0 | 0.00 | 0.00 | 0.00 | 33 | 1010.2 |
| 20260510063242 | 74 | 208 | 2.0 | 3.0 | 0.00 | 0.00 | 0.00 | 32 | 1010.0 |
| 20260510062739 | 74 | 202 | 3.0 | 3.0 | 0.00 | 0.00 | 0.00 | 32 | 1010.0 |
| 20260510062235 | 74 | 204 | 1.0 | 2.0 | 0.00 | 0.00 | 0.00 | 32 | 1009.8 |
| 20260510061730 | 74 | 241 | 3.0 | 3.0 | 0.00 | 0.00 | 0.00 | 31 | 1009.8 |
| 20260510061228 | 74 | 246 | 3.0 | 5.0 | 0.00 | 0.00 | 0.00 | 31 | 1009.7 |
| 20260510060724 | 74 | 230 | 1.0 | 2.0 | 0.00 | 0.00 | 0.00 | 31 | 1009.8 |
| 20260510060221 | 75 | 171 | 3.0 | 5.0 | 0.00 | 0.00 | 0.00 | 30 | 1009.8 |
| 20260510055717 | 75 | 240 | 1.0 | 2.0 | 0.00 | 0.00 | 0.00 | 30 | 1010.0 |
| 20260510055216 | 74 | 243 | 3.0 | 5.0 | 0.00 | 0.00 | 0.00 | 30 | 1009.8 |
| 20260510054715 | 75 | 197 | 3.0 | 5.0 | 0.00 | 0.00 | 0.00 | 29 | 1010.0 |
| 20260510054211 | 75 | 266 | 1.0 | 2.0 | 0.00 | 0.00 | 0.00 | 28 | 1009.8 |
| 20260510053706 | 75 | 15 | 2.0 | 2.0 | 0.00 | 0.00 | 0.00 | 28 | 1009.7 |
| 20260510053203 | 75 | 77 | 3.0 | 5.0 | 0.00 | 0.00 | 0.00 | 27 | 1010.1 |
| 20260510052658 | 75 | 197 | 3.0 | 6.0 | 0.00 | 0.00 | 0.00 | 27 | 1009.6 |
| 20260510052154 | 76 | 137 | 4.0 | 7.0 | 0.00 | 0.00 | 0.00 | 26 | 1009.8 |
| 20260510051650 | 76 | 70 | 4.0 | 6.0 | 0.00 | 0.00 | 0.00 | 25 | 1009.7 |
| 20260510051147 | 75 | 207 | 3.0 | 6.0 | 0.00 | 0.00 | 0.00 | 25 | 1009.7 |
| 20260510050644 | 75 | 240 | 4.0 | 7.0 | 0.00 | 0.00 | 0.00 | 24 | 1009.7 |
| 20260510050142 | 75 | 179 | 1.0 | 2.0 | 0.00 | 0.00 | 0.00 | 23 | 1009.8 |
| 20260510045638 | 76 | 2 | 1.0 | 2.0 | 0.00 | 0.00 | 0.00 | 22 | 1010.0 |
| 20260510045135 | 76 | 179 | 2.0 | 3.0 | 0.00 | 0.00 | 0.00 | 22 | 1009.8 |
| 20260510044631 | 76 | 233 | 5.0 | 7.0 | 0.00 | 0.00 | 0.00 | 21 | 1009.8 |
| 20260510044129 | 76 | 223 | 3.0 | 5.0 | 0.00 | 0.00 | 0.00 | 21 | 1009.6 |
| 20260510043624 | 76 | 199 | 2.0 | 3.0 | 0.00 | 0.00 | 0.00 | 20 | 1009.8 |
| 20260510043121 | 77 | 125 | 2.0 | 3.0 | 0.00 | 0.00 | 0.00 | 20 | 1009.7 |
| 20260510042618 | 77 | 218 | 3.0 | 3.0 | 0.00 | 0.00 | 0.00 | 19 | 1009.7 |
| 20260510042114 | 77 | 223 | 1.0 | 3.0 | 0.00 | 0.00 | 0.00 | 19 | 1009.5 |
| 20260510041612 | 77 | 203 | 3.0 | 5.0 | 0.00 | 0.00 | 0.00 | 19 | 1009.7 |
| 20260510041108 | 77 | 213 | 0.0 | 0.0 | 0.00 | 0.00 | 0.00 | 19 | 1009.5 |
| 20260510040600 | 77 | 266 | 2.0 | 2.0 | 0.00 | 0.00 | 0.00 | 19 | 1009.4 |
| 20260510040056 | 77 | 188 | 0.0 | 1.0 | 0.00 | 0.00 | 0.00 | 18 | 1009.6 |
| 20260510035552 | 77 | 204 | 1.0 | 2.0 | 0.00 | 0.00 | 0.00 | 18 | 1009.6 |
| 20260510035052 | 78 | 193 | 0.0 | 1.0 | 0.00 | 0.00 | 0.00 | 18 | 1009.4 |
| 20260510034550 | 78 | 241 | 1.0 | 1.0 | 0.00 | 0.00 | 0.00 | 18 | 1009.7 |
| 20260510034047 | 78 | 206 | 1.0 | 1.0 | 0.00 | 0.00 | 0.00 | 18 | 1009.5 |
| 20260510033543 | 78 | 206 | 1.0 | 1.0 | 0.00 | 0.00 | 0.00 | 17 | 1009.4 |
| 20260510033041 | 79 | 210 | 1.0 | 5.0 | 0.00 | 0.00 | 0.00 | 17 | 1009.4 |
| 20260510032537 | 80 | 165 | 1.0 | 1.0 | 0.00 | 0.00 | 0.00 | 17 | 1009.5 |
| 20260510032033 | 80 | 166 | 1.0 | 2.0 | 0.00 | 0.00 | 0.00 | 17 | 1009.5 |
| 20260510031528 | 81 | 215 | 1.0 | 2.0 | 0.00 | 0.00 | 0.00 | 16 | 1009.4 |
| 20260510031024 | 81 | 209 | 1.0 | 1.0 | 0.00 | 0.00 | 0.00 | 16 | 1009.3 |
| 20260510030520 | 82 | 214 | 1.0 | 1.0 | 0.00 | 0.00 | 0.00 | 16 | 1009.2 |
| 20260510030017 | 83 | 227 | 1.0 | 2.0 | 0.00 | 0.00 | 0.00 | 15 | 1009.3 |
| 20260510025514 | 84 | 230 | 1.0 | 1.0 | 0.00 | 0.00 | 0.00 | 15 | 1009.1 |
| 20260510025011 | 84 | 257 | 5.0 | 7.0 | 0.00 | 0.00 | 0.00 | 14 | 1008.9 |
| 20260510024508 | 85 | 241 | 1.0 | 1.0 | 0.00 | 0.00 | 0.00 | 14 | 1008.9 |
| 20260510024004 | 86 | 224 | 1.0 | 2.0 | 0.00 | 0.00 | 0.00 | 14 | 1008.7 |
| 20260510023500 | 86 | 268 | 5.0 | 6.0 | 0.00 | 0.00 | 0.00 | 13 | 1008.7 |
| 20260510022957 | 85 | 246 | 8.0 | 10.0 | 0.00 | 0.00 | 0.00 | 14 | 1008.9 |
| 20260510022457 | 84 | 221 | 2.0 | 2.0 | 0.00 | 0.00 | 0.00 | 15 | 1008.7 |
| 20260510021956 | 85 | 222 | 1.0 | 2.0 | 0.00 | 0.00 | 0.00 | 15 | 1008.7 |
| 20260510021454 | 85 | 232 | 3.0 | 3.0 | 0.00 | 0.00 | 0.00 | 14 | 1008.5 |
| 20260510020951 | 86 | 241 | 4.0 | 5.0 | 0.00 | 0.00 | 0.00 | 14 | 1008.6 |
| 20260510020450 | 86 | 244 | 1.0 | 2.0 | 0.00 | 0.00 | 0.00 | 14 | 1008.4 |
| 20260510015946 | 86 | 227 | 1.0 | 1.0 | 0.00 | 0.00 | 0.00 | 14 | 1008.4 |
| 20260510015442 | 86 | 220 | 3.0 | 3.0 | 0.00 | 0.00 | 0.00 | 14 | 1008.4 |
| 20260510014938 | 87 | 220 | 1.0 | 1.0 | 0.00 | 0.00 | 0.00 | 14 | 1008.1 |
| 20260510014436 | 87 | 224 | 2.0 | 3.0 | 0.00 | 0.00 | 0.00 | 13 | 1008.2 |
| 20260510013932 | 87 | 212 | 1.0 | 1.0 | 0.00 | 0.00 | 0.00 | 14 | 1008.1 |
| 20260510013426 | 88 | 253 | 3.0 | 3.0 | 0.00 | 0.00 | 0.00 | 13 | 1008.3 |
| 20260510012922 | 88 | 233 | 1.0 | 2.0 | 0.00 | 0.00 | 0.00 | 13 | 1008.2 |
| 20260510012418 | 88 | 223 | 3.0 | 5.0 | 0.00 | 0.00 | 0.00 | 13 | 1007.9 |
| 20260510011912 | 89 | 243 | 3.0 | 3.0 | 0.00 | 0.00 | 0.00 | 13 | 1008.0 |
| 20260510011408 | 89 | 204 | 2.0 | 3.0 | 0.00 | 0.00 | 0.00 | 13 | 1007.9 |
| 20260510010904 | 89 | 242 | 3.0 | 5.0 | 0.00 | 0.00 | 0.00 | 12 | 1008.1 |
| 20260510010401 | 90 | 252 | 2.0 | 2.0 | 0.00 | 0.00 | 0.00 | 12 | 1007.9 |
| 20260510005858 | 90 | 266 | 5.0 | 7.0 | 0.00 | 0.00 | 0.00 | 12 | 1007.8 |
| 20260510005354 | 91 | 248 | 7.0 | 9.0 | 0.00 | 0.00 | 0.00 | 12 | 1007.9 |
| 20260510004852 | 91 | 171 | 4.0 | 6.0 | 0.00 | 0.00 | 0.00 | 12 | 1007.8 |
| 20260510004349 | 92 | 241 | 2.0 | 3.0 | 0.00 | 0.00 | 0.00 | 11 | 1008.0 |
| 20260510003847 | 91 | 255 | 5.0 | 9.0 | 0.00 | 0.00 | 0.00 | 12 | 1007.8 |
| 20260510003344 | 92 | 243 | 4.0 | 6.0 | 0.00 | 0.00 | 0.00 | 11 | 1008.0 |
| 20260510002842 | 93 | 246 | 3.0 | 5.0 | 0.00 | 0.00 | 0.00 | 11 | 1008.1 |
| 20260510002340 | 93 | 259 | 3.0 | 5.0 | 0.00 | 0.00 | 0.00 | 11 | 1007.8 |
| 20260510001836 | 93 | 167 | 4.0 | 6.0 | 0.00 | 0.00 | 0.00 | 11 | 1008.0 |
| 20260510001335 | 94 | 197 | 5.0 | 8.0 | 0.00 | 0.00 | 0.00 | 11 | 1007.9 |
| 20260510000830 | 93 | 265 | 5.0 | 6.0 | 0.00 | 0.00 | 0.00 | 11 | 1008.0 |
| 20260510000328 | 94 | 176 | 1.0 | 1.0 | 0.00 | 0.00 | 0.00 | 11 | 1007.8 |
| 20260509235825 | 94 | 229 | 3.0 | 5.0 | 0.00 | 0.00 | 0.00 | 11 | 1008.1 |
| 20260509235321 | 95 | 187 | 4.0 | 6.0 | 0.00 | 0.00 | 0.00 | 11 | 1007.9 |
| 20260509234817 | 95 | 269 | 7.0 | 9.0 | 0.00 | 0.00 | 0.00 | 11 | 1008.0 |
| 20260509234314 | 96 | 252 | 4.0 | 5.0 | 0.00 | 0.00 | 0.00 | 10 | 1008.2 |
| 20260509233812 | 96 | 198 | 4.0 | 5.0 | 0.00 | 0.00 | 0.00 | 11 | 1008.0 |
| 20260509233309 | 96 | 216 | 4.0 | 8.0 | 0.00 | 0.00 | 0.00 | 11 | 1008.1 |
| 20260509232805 | 95 | 241 | 4.0 | 5.0 | 0.00 | 0.00 | 0.00 | 11 | 1007.9 |
| 20260509232306 | 96 | 230 | 7.0 | 8.0 | 0.00 | 0.00 | 0.00 | 10 | 1008.1 |
| 20260509231759 | 96 | 223 | 2.0 | 2.0 | 0.00 | 0.00 | 0.00 | 11 | 1008.1 |
| 20260509231256 | 95 | 343 | 2.0 | 3.0 | 0.00 | 0.00 | 0.00 | 11 | 1008.2 |
| 20260509230754 | 95 | 276 | 6.0 | 7.0 | 0.00 | 0.00 | 0.00 | 11 | 1008.0 |
| 20260509230250 | 96 | 250 | 4.0 | 6.0 | 0.00 | 0.00 | 0.00 | 11 | 1008.2 |
| 20260509225745 | 96 | 254 | 5.0 | 7.0 | 0.00 | 0.00 | 0.00 | 10 | 1008.4 |
| 20260509225242 | 94 | 183 | 4.0 | 7.0 | 0.00 | 0.00 | 0.00 | 11 | 1008.3 |
| 20260509224737 | 94 | 147 | 7.0 | 11.0 | 0.00 | 0.00 | 0.00 | 11 | 1008.4 |
| 20260509224235 | 95 | 256 | 5.0 | 7.0 | 0.00 | 0.00 | 0.00 | 11 | 1008.5 |
| 20260509223732 | 94 | 212 | 5.0 | 6.0 | 0.00 | 0.00 | 0.00 | 12 | 1008.3 |
| 20260509223229 | 95 | 236 | 3.0 | 5.0 | 0.00 | 0.00 | 0.00 | 12 | 1008.3 |
| 20260509222726 | 96 | 224 | 5.0 | 8.0 | 0.00 | 0.00 | 0.00 | 12 | 1008.4 |
| 20260509222221 | 95 | 294 | 9.0 | 15.0 | 0.00 | 0.00 | 0.00 | 11 | 1008.4 |
| 20260509221717 | 93 | 263 | 5.0 | 7.0 | 0.00 | 0.00 | 0.00 | 12 | 1008.4 |
| 20260509221213 | 93 | 237 | 4.0 | 6.0 | 0.00 | 0.00 | 0.00 | 12 | 1008.5 |
| 20260509220709 | 95 | 267 | 8.0 | 10.0 | 0.00 | 0.00 | 0.00 | 11 | 1008.7 |
| 20260509220206 | 96 | 289 | 9.0 | 11.0 | 0.00 | 0.00 | 0.00 | 12 | 1009.0 |
| 20260509215701 | 96 | 264 | 2.0 | 3.0 | 0.00 | 0.00 | 0.00 | 12 | 1008.6 |
| 20260509215158 | 95 | 228 | 3.0 | 6.0 | 0.00 | 0.00 | 0.00 | 13 | 1008.7 |
| 20260509214655 | 94 | 242 | 10.0 | 14.0 | 0.00 | 0.00 | 0.00 | 12 | 1008.9 |
| 20260509214152 | 95 | 261 | 5.0 | 7.0 | 0.00 | 0.00 | 0.00 | 12 | 1009.2 |
| 20260509213649 | 96 | 235 | 11.0 | 14.0 | 0.00 | 0.00 | 0.00 | 11 | 1009.1 |
| 20260509213145 | 94 | 235 | 3.0 | 3.0 | 0.00 | 0.00 | 0.00 | 13 | 1008.9 |
| 20260509212642 | 95 | 198 | 4.0 | 6.0 | 0.00 | 0.00 | 0.00 | 12 | 1009.1 |
| 20260509212139 | 94 | 259 | 3.0 | 6.0 | 0.00 | 0.00 | 0.00 | 12 | 1009.3 |
| 20260509211635 | 94 | 274 | 4.0 | 6.0 | 0.00 | 0.00 | 0.00 | 12 | 1009.4 |
| 20260509211132 | 93 | 236 | 5.0 | 6.0 | 0.00 | 0.00 | 0.00 | 13 | 1009.5 |
| 20260509210629 | 93 | 254 | 4.0 | 8.0 | 0.00 | 0.00 | 0.00 | 12 | 1009.7 |
| 20260509210126 | 94 | 232 | 7.0 | 9.0 | 0.00 | 0.00 | 0.00 | 13 | 1009.6 |
| 20260509205620 | 95 | 246 | 11.0 | 15.0 | 0.00 | 0.00 | 0.00 | 12 | 1009.7 |
| 20260509205115 | 96 | 251 | 5.0 | 6.0 | 0.00 | 0.00 | 0.00 | 12 | 1009.7 |
| 20260509204612 | 96 | 265 | 6.0 | 7.0 | 0.00 | 0.00 | 0.00 | 12 | 1009.8 |
| 20260509204108 | 96 | 259 | 6.0 | 10.0 | 0.00 | 0.00 | 0.00 | 11 | 1009.6 |
| 20260509203604 | 96 | 274 | 8.0 | 10.0 | 0.00 | 0.00 | 0.00 | 12 | 1009.8 |
| 20260509203102 | 96 | 238 | 7.0 | 9.0 | 0.00 | 0.00 | 0.00 | 12 | 1010.0 |
| 20260509202556 | 96 | 245 | 6.0 | 9.0 | 0.00 | 0.00 | 0.00 | 12 | 1010.4 |
| 20260509202053 | 96 | 259 | 5.0 | 6.0 | 0.00 | 0.00 | 0.00 | 12 | 1010.2 |
| 20260509201547 | 96 | 206 | 9.0 | 10.0 | 0.00 | 0.00 | 0.00 | 12 | 1010.2 |
| 20260509201046 | 96 | 244 | 6.0 | 9.0 | 0.00 | 0.00 | 0.00 | 12 | 1010.4 |
| 20260509200545 | 96 | 254 | 13.0 | 17.0 | 0.00 | 0.00 | 0.00 | 12 | 1010.6 |
| 20260509200042 | 96 | 270 | 7.0 | 9.0 | 0.00 | 0.00 | 0.00 | 12 | 1010.7 |
| 20260509195537 | 96 | 242 | 5.0 | 8.0 | 0.00 | 0.00 | 0.00 | 12 | 1010.6 |
| 20260509195032 | 95 | 231 | 7.0 | 8.0 | 0.00 | 0.00 | 0.00 | 12 | 1010.8 |
| 20260509194527 | 95 | 226 | 7.0 | 11.0 | 0.00 | 0.00 | 0.00 | 12 | 1010.8 |
| 20260509194024 | 95 | 216 | 5.0 | 8.0 | 0.00 | 0.00 | 0.00 | 13 | 1010.8 |
| 20260509193518 | 95 | 217 | 6.0 | 9.0 | 0.00 | 0.00 | 0.00 | 13 | 1011.0 |
| 20260509193015 | 95 | 299 | 4.0 | 6.0 | 0.00 | 0.00 | 0.00 | 12 | 1011.0 |
| 20260509192512 | 95 | 122 | 3.0 | 6.0 | 0.00 | 0.00 | 0.00 | 12 | 1011.3 |
| 20260509192007 | 95 | 242 | 5.0 | 6.0 | 0.00 | 0.00 | 0.00 | 13 | 1011.2 |
| 20260509191502 | 95 | 252 | 5.0 | 8.0 | 0.00 | 0.00 | 0.00 | 14 | 1011.1 |
| 20260509190958 | 95 | 174 | 5.0 | 7.0 | 0.00 | 0.00 | 0.00 | 14 | 1011.2 |
| 20260509190455 | 94 | 282 | 4.0 | 6.0 | 0.00 | 0.00 | 0.00 | 14 | 1011.1 |
| 20260509185953 | 94 | 209 | 3.0 | 3.0 | 0.00 | 0.00 | 0.00 | 13 | 1011.3 |
| 20260509185450 | 94 | 176 | 3.0 | 5.0 | 0.00 | 0.00 | 0.00 | 14 | 1011.4 |
| 20260509184946 | 93 | 204 | 5.0 | 6.0 | 0.00 | 0.00 | 0.00 | 14 | 1011.6 |
| 20260509184445 | 93 | 261 | 11.0 | 15.0 | 0.00 | 0.00 | 0.00 | 14 | 1011.6 |
| 20260509183940 | 94 | 94 | 4.0 | 6.0 | 0.00 | 0.00 | 0.00 | 14 | 1011.9 |
| 20260509183435 | 93 | 263 | 6.0 | 8.0 | 0.00 | 0.00 | 0.00 | 14 | 1011.5 |
| 20260509182932 | 93 | 286 | 6.0 | 9.0 | 0.00 | 0.00 | 0.00 | 14 | 1011.9 |
| 20260509182428 | 93 | 187 | 5.0 | 7.0 | 0.00 | 0.00 | 0.00 | 15 | 1011.9 |
| 20260509181925 | 93 | 74 | 5.0 | 6.0 | 0.00 | 0.00 | 0.00 | 15 | 1012.2 |
| 20260509181423 | 92 | 222 | 3.0 | 5.0 | 0.00 | 0.00 | 0.00 | 15 | 1012.1 |
| 20260509180920 | 92 | 308 | 4.0 | 6.0 | 0.00 | 0.00 | 0.00 | 16 | 1012.4 |
| 20260509180416 | 92 | 41 | 4.0 | 6.0 | 0.00 | 0.00 | 0.00 | 15 | 1012.7 |
| 20260509175913 | 92 | 171 | 3.0 | 5.0 | 0.00 | 0.00 | 0.00 | 16 | 1012.6 |
| 20260509175409 | 92 | 224 | 3.0 | 5.0 | 0.00 | 0.00 | 0.00 | 16 | 1012.6 |
| 20260509174906 | 91 | 281 | 8.0 | 10.0 | 0.00 | 0.00 | 0.00 | 16 | 1012.8 |
| 20260509174402 | 90 | 152 | 3.0 | 3.0 | 0.00 | 0.00 | 0.00 | 17 | 1012.8 |
| 20260509173858 | 91 | 259 | 9.0 | 11.0 | 0.00 | 0.00 | 0.00 | 17 | 1013.0 |
| 20260509173357 | 90 | 233 | 6.0 | 7.0 | 0.00 | 0.00 | 0.00 | 18 | 1012.9 |
| 20260509172854 | 91 | 216 | 7.0 | 9.0 | 0.00 | 0.00 | 0.00 | 19 | 1012.9 |
| 20260509172351 | 90 | 346 | 4.0 | 6.0 | 0.00 | 0.00 | 0.00 | 19 | 1012.9 |
| 20260509171847 | 90 | 298 | 3.0 | 3.0 | 0.00 | 0.00 | 0.00 | 19 | 1012.9 |
| 20260509171343 | 89 | 84 | 4.0 | 6.0 | 0.00 | 0.00 | 0.00 | 20 | 1013.0 |
| 20260509170840 | 90 | 225 | 4.0 | 5.0 | 0.00 | 0.00 | 0.00 | 20 | 1013.0 |
| 20260509170335 | 89 | 201 | 4.0 | 7.0 | 0.00 | 0.00 | 0.00 | 20 | 1013.2 |
| 20260509165830 | 88 | 135 | 3.0 | 3.0 | 0.00 | 0.00 | 0.00 | 21 | 1013.5 |
| 20260509165325 | 88 | 248 | 5.0 | 7.0 | 0.00 | 0.00 | 0.00 | 23 | 1013.4 |
| 20260509164821 | 88 | 263 | 5.0 | 6.0 | 0.00 | 0.00 | 0.00 | 23 | 1013.5 |
| 20260509164317 | 88 | 259 | 9.0 | 14.0 | 0.00 | 0.00 | 0.00 | 22 | 1013.5 |
| 20260509163814 | 87 | 274 | 4.0 | 6.0 | 0.00 | 0.00 | 0.00 | 23 | 1013.5 |
| 20260509163310 | 86 | 301 | 1.0 | 2.0 | 0.00 | 0.00 | 0.00 | 25 | 1013.6 |
| 20260509162809 | 86 | 263 | 5.0 | 6.0 | 0.00 | 0.00 | 0.00 | 24 | 1013.8 |
| 20260509162306 | 86 | 295 | 3.0 | 5.0 | 0.00 | 0.00 | 0.00 | 25 | 1013.8 |
| 20260509161759 | 85 | 264 | 3.0 | 5.0 | 0.00 | 0.00 | 0.00 | 27 | 1013.7 |
| 20260509161255 | 84 | 168 | 3.0 | 5.0 | 0.00 | 0.00 | 0.00 | 28 | 1013.9 |
| 20260509160751 | 84 | 236 | 2.0 | 2.0 | 0.00 | 0.00 | 0.00 | 29 | 1013.9 |
| 20260509160247 | 84 | 170 | 2.0 | 2.0 | 0.00 | 0.00 | 0.00 | 30 | 1013.9 |
| 20260509155742 | 84 | 178 | 3.0 | 3.0 | 0.00 | 0.00 | 0.00 | 31 | 1013.7 |
| 20260509155239 | 83 | 211 | 1.0 | 2.0 | 0.00 | 0.00 | 0.00 | 32 | 1013.8 |
| 20260509154735 | 82 | 235 | 2.0 | 3.0 | 0.00 | 0.00 | 0.00 | 33 | 1014.0 |
| 20260509154232 | 82 | 218 | 4.0 | 5.0 | 0.00 | 0.00 | 0.00 | 33 | 1014.0 |
| 20260509153730 | 81 | 78 | 1.0 | 1.0 | 0.00 | 0.00 | 0.00 | 37 | 1014.0 |
| 20260509153225 | 81 | 300 | 2.0 | 3.0 | 0.00 | 0.00 | 0.00 | 37 | 1013.8 |
| 20260509152722 | 80 | 245 | 1.0 | 2.0 | 0.00 | 0.00 | 0.00 | 38 | 1013.7 |
| 20260509152219 | 79 | 88 | 1.0 | 2.0 | 0.00 | 0.00 | 0.00 | 39 | 1013.9 |
| 20260509151715 | 79 | 242 | 3.0 | 6.0 | 0.00 | 0.00 | 0.00 | 39 | 1014.0 |
| 20260509151213 | 78 | 176 | 1.0 | 1.0 | 0.00 | 0.00 | 0.00 | 41 | 1014.1 |
| 20260509150710 | 78 | 141 | 3.0 | 5.0 | 0.00 | 0.00 | 0.00 | 41 | 1014.1 |
| 20260509150209 | 77 | 184 | 2.0 | 3.0 | 0.00 | 0.00 | 0.00 | 43 | 1014.1 |
| 20260509145704 | 77 | 91 | 1.0 | 2.0 | 0.00 | 0.00 | 0.00 | 44 | 1014.1 |
| 20260509145200 | 77 | 219 | 2.0 | 3.0 | 0.00 | 0.00 | 0.00 | 44 | 1014.5 |
| 20260509144656 | 75 | 166 | 1.0 | 1.0 | 0.00 | 0.00 | 0.00 | 47 | 1014.1 |
| 20260509144154 | 75 | 187 | 2.0 | 2.0 | 0.00 | 0.00 | 0.00 | 47 | 1014.0 |
| 20260509143651 | 74 | 170 | 2.0 | 2.0 | 0.00 | 0.00 | 0.00 | 49 | 1014.0 |
| 20260509143148 | 73 | 163 | 2.0 | 2.0 | 0.00 | 0.00 | 0.00 | 50 | 1013.9 |
| 20260509142643 | 73 | 194 | 2.0 | 3.0 | 0.00 | 0.00 | 0.00 | 51 | 1014.1 |
| 20260509142141 | 71 | 227 | 3.0 | 3.0 | 0.00 | 0.00 | 0.00 | 53 | 1014.0 |
| 20260509141636 | 71 | 182 | 2.0 | 2.0 | 0.00 | 0.00 | 0.00 | 54 | 1013.8 |
| 20260509141132 | 70 | 176 | 3.0 | 5.0 | 0.00 | 0.00 | 0.00 | 54 | 1014.3 |
| 20260509140630 | 70 | 209 | 3.0 | 3.0 | 0.00 | 0.00 | 0.00 | 57 | 1014.0 |
| 20260509140128 | 69 | 181 | 1.0 | 2.0 | 0.00 | 0.00 | 0.00 | 60 | 1014.5 |
| 20260509135624 | 69 | 241 | 2.0 | 3.0 | 0.00 | 0.00 | 0.00 | 61 | 1014.3 |
| 20260509135123 | 67 | 206 | 1.0 | 2.0 | 0.00 | 0.00 | 0.00 | 65 | 1014.1 |
| 20260509134619 | 67 | 154 | 3.0 | 3.0 | 0.00 | 0.00 | 0.00 | 65 | 1014.3 |
| 20260509134116 | 66 | 180 | 2.0 | 2.0 | 0.00 | 0.00 | 0.00 | 66 | 1014.3 |
| 20260509133614 | 66 | 185 | 4.0 | 6.0 | 0.00 | 0.00 | 0.00 | 67 | 1014.3 |
| 20260509133111 | 65 | 177 | 2.0 | 2.0 | 0.00 | 0.00 | 0.00 | 70 | 1014.5 |
| 20260509132609 | 65 | 181 | 2.0 | 2.0 | 0.00 | 0.00 | 0.00 | 71 | 1014.3 |
| 20260509132107 | 65 | 140 | 2.0 | 3.0 | 0.00 | 0.00 | 0.00 | 72 | 1014.4 |
| 20260509131603 | 64 | 189 | 1.0 | 1.0 | 0.00 | 0.00 | 0.00 | 74 | 1014.4 |
| 20260509131100 | 63 | 190 | 0.0 | 1.0 | 0.00 | 0.00 | 0.00 | 75 | 1014.5 |
| 20260509130555 | 63 | 112 | 3.0 | 5.0 | 0.00 | 0.00 | 0.00 | 76 | 1014.4 |
| 20260509130053 | 63 | 133 | 2.0 | 2.0 | 0.00 | 0.00 | 0.00 | 77 | 1014.0 |
| 20260509125549 | 63 | 161 | 3.0 | 3.0 | 0.00 | 0.00 | 0.00 | 78 | 1014.1 |
| 20260509125046 | 62 | 131 | 2.0 | 2.0 | 0.00 | 0.00 | 0.00 | 79 | 1014.0 |
| 20260509124542 | 62 | 149 | 1.0 | 1.0 | 0.00 | 0.00 | 0.00 | 79 | 1013.8 |
| 20260509124039 | 62 | 135 | 3.0 | 5.0 | 0.00 | 0.00 | 0.00 | 80 | 1013.9 |
| 20260509123537 | 61 | 145 | 3.0 | 3.0 | 0.00 | 0.00 | 0.00 | 80 | 1013.9 |
| 20260509123033 | 61 | 139 | 1.0 | 2.0 | 0.00 | 0.00 | 0.00 | 80 | 1013.9 |
| 20260509122530 | 61 | 195 | 1.0 | 1.0 | 0.00 | 0.00 | 0.00 | 81 | 1013.8 |
| 20260509122027 | 60 | 136 | 2.0 | 2.0 | 0.00 | 0.00 | 0.00 | 82 | 1013.7 |
| 20260509121523 | 60 | 126 | 1.0 | 3.0 | 0.00 | 0.00 | 0.00 | 82 | 1013.7 |
| 20260509121021 | 60 | 192 | 2.0 | 3.0 | 0.00 | 0.00 | 0.00 | 81 | 1013.5 |
| 20260509120519 | 60 | 178 | 1.0 | 1.0 | 0.00 | 0.00 | 0.00 | 80 | 1013.6 |
| 20260509120017 | 60 | 125 | 1.0 | 1.0 | 0.00 | 0.00 | 0.00 | 80 | 1013.3 |
| 20260509115514 | 60 | 113 | 2.0 | 3.0 | 0.00 | 0.00 | 0.00 | 79 | 1013.2 |
| 20260509115012 | 60 | 54 | 2.0 | 3.0 | 0.00 | 0.00 | 0.00 | 79 | 1013.3 |
| 20260509114509 | 60 | 189 | 1.0 | 2.0 | 0.00 | 0.00 | 0.00 | 78 | 1013.0 |
| 20260509114009 | 61 | 119 | 2.0 | 3.0 | 0.00 | 0.00 | 0.00 | 78 | 1013.0 |
| 20260509113506 | 61 | 174 | 1.0 | 1.0 | 0.00 | 0.00 | 0.00 | 77 | 1012.9 |
| 20260509113004 | 61 | 102 | 3.0 | 5.0 | 0.00 | 0.00 | 0.00 | 76 | 1012.8 |
| 20260509112500 | 61 | 101 | 5.0 | 7.0 | 0.00 | 0.00 | 0.00 | 76 | 1012.7 |
| 20260509111956 | 61 | 129 | 2.0 | 3.0 | 0.00 | 0.00 | 0.00 | 74 | 1012.7 |
| 20260509111454 | 62 | 136 | 2.0 | 2.0 | 0.00 | 0.00 | 0.00 | 73 | 1012.9 |
| 20260509110951 | 62 | 147 | 6.0 | 7.0 | 0.00 | 0.00 | 0.00 | 72 | 1012.9 |
| 20260509110447 | 62 | 142 | 1.0 | 2.0 | 0.00 | 0.00 | 0.00 | 71 | 1012.7 |
| 20260509105945 | 62 | 157 | 3.0 | 3.0 | 0.00 | 0.00 | 0.00 | 69 | 1012.6 |
| 20260509105443 | 63 | 150 | 3.0 | 3.0 | 0.00 | 0.00 | 0.00 | 68 | 1012.5 |
| 20260509104940 | 63 | 64 | 3.0 | 6.0 | 0.00 | 0.00 | 0.00 | 66 | 1012.8 |
| 20260509104437 | 63 | 117 | 2.0 | 2.0 | 0.00 | 0.00 | 0.00 | 63 | 1012.8 |
| 20260509103934 | 63 | 125 | 1.0 | 3.0 | 0.00 | 0.00 | 0.00 | 59 | 1012.7 |
| 20260509103432 | 64 | 107 | 1.0 | 2.0 | 0.00 | 0.00 | 0.00 | 55 | 1013.0 |
| 20260509102930 | 64 | 351 | 2.0 | 3.0 | 0.00 | 0.00 | 0.00 | 49 | 1012.8 |
| 20260509102427 | 64 | 313 | 5.0 | 6.0 | 0.00 | 0.00 | 0.00 | 48 | 1012.9 |
| 20260509101923 | 64 | 154 | 1.0 | 2.0 | 0.00 | 0.00 | 0.00 | 47 | 1012.9 |
| 20260509101419 | 63 | 203 | 0.0 | 1.0 | 0.00 | 0.00 | 0.00 | 47 | 1013.0 |
| 20260509100917 | 62 | 110 | 1.0 | 2.0 | 0.00 | 0.00 | 0.00 | 45 | 1012.7 |
| 20260509100414 | 62 | 182 | 0.0 | 1.0 | 0.00 | 0.00 | 0.00 | 44 | 1012.7 |
| 20260509095910 | 62 | 214 | 0.0 | 0.0 | 0.00 | 0.00 | 0.00 | 43 | 1012.9 |
| 20260509095408 | 62 | 213 | 0.0 | 0.0 | 0.00 | 0.00 | 0.00 | 42 | 1013.0 |